Regional Weather Roundup
Issued by NWS

Home | Current Version | Previous Version | Text Only | Print | Product List | Glossary On
Versions: 1 2 3 4 5 6 7 8 9 10 11 12 13 14 15 16 17 18 19 20 21 22 23 24 25 26 27 28 29 30 31 32 33 34 35 36 37 38 39 40 41 42 43 44 45 46 47 48 49 50
000
ASUS43 KLSX 032257
RWRMO

WEATHER SUMMARY FOR MISSOURI
NATIONAL WEATHER SERVICE SPRINGFIELD MO
600 PM CDT TUE MAY 03 2016

NOTE: "FAIR" INDICATES FEW OR NO CLOUDS BELOW 12,000 FEET WITH NO
       SIGNIFICANT WEATHER AND/OR OBSTRUCTIONS TO VISIBILITY.
       CURRENT SKY AND/OR WEATHER CONDITIONS ARE NOT AVAILABLE FOR
       CHILLICOTHE AND FARMINGTON.

MOZ001>031-035>038-043-044-053-054-040000-
...NORTHERN AND WESTERN MISSOURI...

CITY           SKY/WX    TMP DP  RH WIND       PRES   REMARKS
KANSAS CTY INT MOSUNNY   69  41  36 W12       29.96F
LEE`S SUMMIT   MOSUNNY   68  40  35 NW9       29.97F
ST JOSEPH      MOSUNNY   68  41  37 W14       29.95F
CHILLICOTHE      N/A     69  42  37 VRB7      29.95F

$$
MOZ066>068-077>081-088>096-101>105-040000-
...SOUTHWEST MISSOURI...

CITY           SKY/WX    TMP DP  RH WIND       PRES   REMARKS
SPRINGFIELD    MOSUNNY   66  36  32 NW9       29.99F
JOPLIN         MOSUNNY   67  43  41 W8        30.01F
BRANSON        MOSUNNY   64  39  39 NW10      30.02S

$$
MOZ032>034-039>042-045>050-055>058-069>072-040000-
...CENTRAL MISSOURI...

CITY           SKY/WX    TMP DP  RH WIND       PRES   REMARKS
COLUMBIA       NOT AVBL
JEFFERSON CITY MOSUNNY   67  37  33 W10       29.95F
ROLLA          SUNNY     63  41  44 NW6       29.95F
SEDALIA        SUNNY     66  43  43 NW6       29.97F
WARRENSBURG    MOSUNNY   68  37  32 W6        29.96F

$$
MOZ051-052-059>065-040000-
...EAST CENTRAL MISSOURI...

CITY           SKY/WX    TMP DP  RH WIND       PRES   REMARKS
ST LOUIS INTL  PTSUNNY   65  41  41 NW8       29.95F

$$
MOZ072>076-082>087-097>100-106>115-040000-
...SOUTH CENTRAL AND SOUTHEAST MISSOURI...

CITY           SKY/WX    TMP DP  RH WIND       PRES   REMARKS
CAPE GIRARDEAU CLOUDY    63  46  54 VRB6      29.95F
POPLAR BLUFF   MOSUNNY   64  49  57 NE3       29.95S
WEST PLAINS    MOSUNNY   66  38  35 N7        29.99F

$$



USA.gov is the U.S. government's official web portal to all federal, state and local government web resources and services.